time, beta470, beta532, beta650
yyyy/mm/dd HH:MM:SS.fff, counts, counts, counts
2023/06/22 04:00:02.090, 116, 126, 79
2023/06/22 04:00:03.226, 118, 127, 80
2023/06/22 04:00:04.362, 109, 132, 82
2023/06/22 04:00:05.482, 112, 127, 84
2023/06/22 04:00:06.618, 110, 122, 79
2023/06/22 04:00:07.754, 111, 131, 78
2023/06/22 04:00:08.873, 116, 131, 93
2023/06/22 04:00:10.010, 131, 126, 81
2023/06/22 04:00:11.130, 109, 146, 81
2023/06/22 04:00:12.265, 113, 132, 83
2023/06/22 04:00:13.402, 116, 126, 77
2023/06/22 04:00:14.521, 122, 128, 84
2023/06/22 04:00:15.657, 107, 135, 79
2023/06/22 04:00:16.793, 107, 128, 83
2023/06/22 04:00:17.913, 112, 127, 78
2023/06/22 04:00:19.049, 108, 123, 80
2023/06/22 04:00:20.169, 107, 125, 80
2023/06/22 04:00:21.305, 112, 127, 80
2023/06/22 04:00:22.440, 114, 126, 87
2023/06/22 04:00:23.560, 110, 130, 275
2023/06/22 04:00:24.696, 111, 127, 96
2023/06/22 04:00:25.833, 113, 127, 83
2023/06/22 04:00:26.952, 109, 131, 81
2023/06/22 04:00:28.088, 113, 132, 80
2023/06/22 04:00:29.209, 108, 129, 85
2023/06/22 04:00:30.345, 114, 129, 88
2023/06/22 04:00:31.480, 113, 140, 84
2023/06/22 04:00:32.600, 113, 131, 77
2023/06/22 04:00:33.736, 113, 127, 80
2023/06/22 04:00:34.856, 113, 141, 86
2023/06/22 04:00:35.992, 123, 138, 83
2023/06/22 04:00:37.128, 122, 153, 85
2023/06/22 04:00:38.248, 118, 151, 86
2023/06/22 04:00:39.384, 122, 149, 91
2023/06/22 04:00:40.519, 118, 143, 95
2023/06/22 04:00:41.640, 125, 147, 86
2023/06/22 04:00:42.775, 119, 142, 88
2023/06/22 04:00:43.895, 138, 145, 89
2023/06/22 04:00:45.031, 124, 149, 92
2023/06/22 04:00:46.168, 122, 141, 91
2023/06/22 04:00:47.287, 121, 144, 89
2023/06/22 04:00:48.423, 122, 145, 88
2023/06/22 04:00:49.559, 127, 148, 92
2023/06/22 04:00:50.679, 115, 150, 89
2023/06/22 04:00:51.815, 117, 149, 85
2023/06/22 04:00:52.934, 116, 152, 89
2023/06/22 04:00:54.071, 122, 159, 84
2023/06/22 04:00:55.207, 119, 142, 85
2023/06/22 04:00:56.326, 124, 146, 98
2023/06/22 04:00:57.462, 125, 145, 81
2023/06/22 04:00:58.598, 121, 145, 93
2023/06/22 04:00:59.718, 121, 143, 92
2023/06/22 04:01:00.854, 117, 147, 96
2023/06/22 04:01:01.975, 124, 143, 97
2023/06/22 04:01:03.110, 124, 149, 84
2023/06/22 04:01:04.246, 129, 148, 84
2023/06/22 04:01:05.367, 124, 138, 86
2023/06/22 04:01:06.501, 121, 141, 87
2023/06/22 04:01:07.638, 119, 151, 85
2023/06/22 04:01:08.758, 120, 142, 84
2023/06/22 04:01:09.893, 119, 144, 82
2023/06/22 04:01:11.014, 120, 142, 90
2023/06/22 04:01:12.149, 119, 142, 87
2023/06/22 04:01:13.285, 119, 140, 90
2023/06/22 04:01:14.406, 120, 135, 85
2023/06/22 04:01:15.541, 119, 136, 82
2023/06/22 04:01:16.677, 118, 137, 84
2023/06/22 04:01:17.798, 116, 135, 84
2023/06/22 04:01:18.933, 116, 129, 81
2023/06/22 04:01:20.053, 116, 137, 85
2023/06/22 04:01:21.189, 115, 142, 87
2023/06/22 04:01:22.325, 114, 143, 80
2023/06/22 04:01:23.445, 117, 142, 92
2023/06/22 04:01:24.581, 118, 147, 84
2023/06/22 04:01:25.717, 120, 152, 83
2023/06/22 04:01:26.836, 116, 144, 83
2023/06/22 04:01:27.972, 111, 136, 81
2023/06/22 04:01:29.092, 119, 136, 84
2023/06/22 04:01:30.228, 114, 135, 80
2023/06/22 04:01:31.364, 117, 139, 81
2023/06/22 04:01:32.484, 113, 134, 83
2023/06/22 04:01:33.620, 112, 134, 79
2023/06/22 04:01:34.740, 113, 132, 83
2023/06/22 04:01:35.876, 111, 133, 80
2023/06/22 04:01:37.012, 114, 137, 82
2023/06/22 04:01:38.131, 112, 137, 80
2023/06/22 04:01:39.268, 112, 131, 81
2023/06/22 04:01:40.388, 113, 137, 84
2023/06/22 04:01:41.524, 112, 128, 78
2023/06/22 04:01:42.660, 113, 127, 78
2023/06/22 04:01:43.780, 111, 132, 83
2023/06/22 04:01:44.915, 113, 135, 86
2023/06/22 04:01:46.051, 111, 133, 86
2023/06/22 04:01:47.171, 112, 139, 78
2023/06/22 04:01:48.307, 114, 130, 78
2023/06/22 04:01:49.428, 111, 127, 83
2023/06/22 04:01:50.563, 108, 127, 76
2023/06/22 04:01:51.699, 112, 128, 81
2023/06/22 04:01:52.818, 117, 126, 79
2023/06/22 04:01:53.955, 110, 126, 84
2023/06/22 04:01:55.091, 111, 127, 76
2023/06/22 04:01:56.211, 108, 125, 77
2023/06/22 04:01:57.347, 105, 130, 79
2023/06/22 04:01:58.466, 108, 126, 77
2023/06/22 04:01:59.602, 107, 122, 78
2023/06/22 04:02:00.739, 111, 127, 77
2023/06/22 04:02:01.858, 108, 122, 77
2023/06/22 04:02:02.994, 107, 124, 78
2023/06/22 04:02:04.130, 109, 122, 77
2023/06/22 04:02:05.250, 108, 124, 77
2023/06/22 04:02:06.387, 114, 118, 77
2023/06/22 04:02:07.506, 128, 128, 76
2023/06/22 04:02:08.642, 108, 125, 78
2023/06/22 04:02:09.778, 106, 122, 79
2023/06/22 04:02:10.898, 112, 123, 76
2023/06/22 04:02:12.034, 109, 123, 73
2023/06/22 04:02:13.170, 107, 122, 82
2023/06/22 04:02:14.289, 107, 123, 76
2023/06/22 04:02:15.426, 102, 121, 75
2023/06/22 04:02:16.546, 107, 118, 74
2023/06/22 04:02:17.681, 103, 120, 76
2023/06/22 04:02:18.817, 105, 119, 75
2023/06/22 04:02:19.938, 103, 121, 74
2023/06/22 04:02:21.073, 109, 121, 72
2023/06/22 04:02:22.209, 107, 117, 75
2023/06/22 04:02:23.329, 107, 124, 73
2023/06/22 04:02:24.465, 109, 126, 78
2023/06/22 04:02:25.586, 107, 117, 79
2023/06/22 04:02:26.721, 105, 118, 74
2023/06/22 04:02:27.857, 101, 121, 73
2023/06/22 04:02:28.976, 107, 113, 76
2023/06/22 04:02:30.112, 107, 117, 77
2023/06/22 04:02:31.232, 102, 113, 75
2023/06/22 04:02:32.368, 103, 125, 74
2023/06/22 04:02:33.504, 104, 127, 74
2023/06/22 04:02:34.624, 104, 115, 76
2023/06/22 04:02:35.760, 100, 116, 72
2023/06/22 04:02:36.880, 102, 116, 71
2023/06/22 04:02:38.016, 103, 115, 79
2023/06/22 04:02:39.152, 106, 116, 74
2023/06/22 04:02:40.272, 104, 111, 75
2023/06/22 04:02:41.408, 104, 114, 74
2023/06/22 04:02:42.543, 104, 111, 71
2023/06/22 04:02:43.664, 115, 116, 73
2023/06/22 04:02:44.799, 103, 115, 76
2023/06/22 04:02:45.920, 106, 115, 69
2023/06/22 04:02:47.056, 104, 111, 73
2023/06/22 04:02:48.191, 101, 112, 71
2023/06/22 04:02:49.312, 102, 109, 75
2023/06/22 04:02:50.447, 101, 116, 76
2023/06/22 04:02:51.584, 99, 123, 76
2023/06/22 04:02:52.703, 103, 113, 78
2023/06/22 04:02:53.838, 100, 116, 76
2023/06/22 04:02:54.959, 102, 113, 83
2023/06/22 04:02:56.095, 102, 111, 75
2023/06/22 04:02:57.231, 99, 111, 74
2023/06/22 04:02:58.351, 98, 113, 83
2023/06/22 04:02:59.487, 98, 113, 70
2023/06/22 04:03:00.607, 97, 110, 70
2023/06/22 04:03:01.743, 98, 111, 69
2023/06/22 04:03:02.862, 98, 109, 78
2023/06/22 04:03:03.999, 99, 107, 70
2023/06/22 04:03:05.135, 96, 111, 71
2023/06/22 04:03:06.255, 100, 109, 75
2023/06/22 04:03:07.390, 101, 109, 71
2023/06/22 04:03:08.527, 100, 109, 69
2023/06/22 04:03:09.646, 99, 109, 71
2023/06/22 04:03:10.783, 102, 110, 68
2023/06/22 04:03:11.902, 100, 111, 67
2023/06/22 04:03:13.038, 101, 111, 70
2023/06/22 04:03:14.174, 102, 111, 72
2023/06/22 04:03:15.294, 103, 110, 148
2023/06/22 04:03:16.430, 99, 109, 73
2023/06/22 04:03:17.550, 99, 106, 70
2023/06/22 04:03:18.685, 101, 107, 71
2023/06/22 04:03:19.821, 98, 107, 69
2023/06/22 04:03:20.942, 100, 107, 67
2023/06/22 04:03:22.077, 97, 109, 73
2023/06/22 04:03:23.197, 95, 106, 70
2023/06/22 04:03:24.334, 96, 106, 71
2023/06/22 04:03:25.469, 95, 111, 70
2023/06/22 04:03:26.589, 96, 114, 72
2023/06/22 04:03:27.725, 97, 104, 69
2023/06/22 04:03:28.845, 97, 104, 72
2023/06/22 04:03:29.981, 94, 105, 77
2023/06/22 04:03:31.101, 99, 106, 70
2023/06/22 04:03:32.237, 93, 107, 69
2023/06/22 04:03:33.357, 97, 104, 69
2023/06/22 04:03:34.492, 96, 103, 74
2023/06/22 04:03:35.629, 96, 101, 70
2023/06/22 04:03:36.748, 94, 104, 66
2023/06/22 04:03:37.885, 96, 107, 76
2023/06/22 04:03:39.004, 97, 104, 71
2023/06/22 04:03:40.140, 100, 101, 70
2023/06/22 04:03:41.260, 98, 107, 67
2023/06/22 04:03:42.396, 100, 117, 74
2023/06/22 04:03:43.532, 92, 125, 73
2023/06/22 04:03:44.652, 102, 122, 71
2023/06/22 04:03:45.788, 96, 124, 69
2023/06/22 04:03:46.908, 96, 115, 65
2023/06/22 04:03:48.043, 92, 104, 70
2023/06/22 04:03:49.180, 101, 103, 71
2023/06/22 04:03:50.300, 97, 105, 66
2023/06/22 04:03:51.435, 96, 100, 73
2023/06/22 04:03:52.556, 95, 104, 67
2023/06/22 04:03:53.692, 93, 101, 68
2023/06/22 04:03:54.812, 92, 100, 70
2023/06/22 04:03:55.947, 97, 102, 64
2023/06/22 04:03:57.083, 96, 102, 68
2023/06/22 04:03:58.202, 94, 101, 64
2023/06/22 04:03:59.339, 93, 103, 72
2023/06/22 04:04:00.459, 93, 105, 78
2023/06/22 04:04:01.595, 91, 101, 66
2023/06/22 04:04:02.715, 92, 101, 69
2023/06/22 04:04:03.850, 93, 103, 66
2023/06/22 04:04:04.987, 91, 104, 73
2023/06/22 04:04:06.107, 95, 100, 67
2023/06/22 04:04:07.243, 94, 99, 70
2023/06/22 04:04:08.362, 96, 104, 65
2023/06/22 04:04:09.498, 92, 97, 70
2023/06/22 04:04:10.618, 94, 103, 68
2023/06/22 04:04:11.755, 93, 101, 62
2023/06/22 04:04:12.890, 92, 101, 68
2023/06/22 04:04:14.010, 93, 102, 69
2023/06/22 04:04:15.146, 90, 101, 66
2023/06/22 04:04:16.266, 94, 100, 71
2023/06/22 04:04:17.402, 91, 102, 67
2023/06/22 04:04:18.522, 91, 98, 69
2023/06/22 04:04:19.658, 92, 97, 64
2023/06/22 04:04:20.777, 89, 99, 71
2023/06/22 04:04:21.913, 91, 97, 71
2023/06/22 04:04:23.033, 88, 98, 72
2023/06/22 04:04:24.169, 92, 97, 64
2023/06/22 04:04:25.306, 93, 101, 66
2023/06/22 04:04:26.425, 92, 102, 66
2023/06/22 04:04:27.561, 86, 98, 67
2023/06/22 04:04:28.681, 91, 100, 65
2023/06/22 04:04:29.817, 92, 97, 64
2023/06/22 04:04:30.937, 93, 100, 67
2023/06/22 04:04:32.072, 89, 97, 71
2023/06/22 04:04:33.193, 91, 96, 69
2023/06/22 04:04:34.329, 92, 98, 64
2023/06/22 04:04:35.448, 88, 97, 62
2023/06/22 04:04:36.585, 89, 100, 65
2023/06/22 04:04:37.705, 89, 103, 71
2023/06/22 04:04:38.841, 92, 97, 69
2023/06/22 04:04:39.961, 91, 98, 66
2023/06/22 04:04:41.096, 88, 95, 64
2023/06/22 04:04:42.216, 87, 95, 65
2023/06/22 04:04:43.352, 88, 99, 67
2023/06/22 04:04:44.488, 90, 100, 70
2023/06/22 04:04:45.608, 91, 101, 66
2023/06/22 04:04:46.744, 91, 93, 66
2023/06/22 04:04:47.864, 95, 99, 62
2023/06/22 04:04:48.000, 90, 100, 62
2023/06/22 04:04:50.120, 90, 92, 66
2023/06/22 04:04:51.256, 90, 95, 67
2023/06/22 04:04:52.375, 90, 97, 62
2023/06/22 04:04:53.512, 91, 95, 65
2023/06/22 04:04:54.632, 90, 94, 67
2023/06/22 04:04:55.767, 90, 99, 67
2023/06/22 04:04:56.888, 94, 95, 63
2023/06/22 04:04:58.024, 92, 101, 67
2023/06/22 04:04:59.159, 88, 96, 67
2023/06/22 04:05:00.280, 88, 96, 62
2023/06/22 04:05:01.415, 88, 94, 67
2023/06/22 04:05:02.535, 95, 97, 62
2023/06/22 04:05:03.671, 92, 97, 63
2023/06/22 04:05:04.791, 95, 95, 66
2023/06/22 04:05:05.927, 92, 99, 69
2023/06/22 04:05:07.047, 92, 92, 63
2023/06/22 04:05:08.183, 94, 95, 65
2023/06/22 04:05:09.303, 98, 94, 65
2023/06/22 04:05:10.439, 101, 93, 63
2023/06/22 04:05:11.559, 104, 94, 64
2023/06/22 04:05:12.695, 95, 95, 60
2023/06/22 04:05:13.814, 94, 93, 65
2023/06/22 04:05:14.951, 87, 96, 68
2023/06/22 04:05:16.070, 89, 92, 62
2023/06/22 04:05:17.207, 88, 94, 64
2023/06/22 04:05:18.326, 87, 98, 67
2023/06/22 04:05:19.462, 87, 94, 62
2023/06/22 04:05:20.598, 90, 90, 64
2023/06/22 04:05:21.718, 88, 94, 62
2023/06/22 04:05:22.854, 91, 94, 68
2023/06/22 04:05:23.974, 89, 95, 71
2023/06/22 04:05:25.110, 90, 93, 60
2023/06/22 04:05:26.230, 85, 96, 66
2023/06/22 04:05:27.366, 85, 96, 63
2023/06/22 04:05:28.486, 90, 95, 62
2023/06/22 04:05:29.621, 87, 94, 64
2023/06/22 04:05:30.741, 90, 93, 65
2023/06/22 04:05:31.877, 91, 96, 67
2023/06/22 04:05:32.997, 87, 93, 63
2023/06/22 04:05:34.133, 87, 96, 62
2023/06/22 04:05:35.253, 90, 92, 60
2023/06/22 04:05:36.389, 86, 90, 64
2023/06/22 04:05:37.508, 88, 93, 63
2023/06/22 04:05:38.645, 86, 90, 65
2023/06/22 04:05:39.765, 85, 89, 66
2023/06/22 04:05:40.901, 87, 91, 65
2023/06/22 04:05:42.020, 86, 95, 59
2023/06/22 04:05:43.156, 87, 92, 66
2023/06/22 04:05:44.277, 86, 92, 63
2023/06/22 04:05:45.413, 87, 93, 60
2023/06/22 04:05:46.532, 84, 92, 69
2023/06/22 04:05:47.669, 90, 93, 62
2023/06/22 04:05:48.788, 88, 94, 61
2023/06/22 04:05:49.924, 86, 92, 64
2023/06/22 04:05:51.060, 92, 93, 65
2023/06/22 04:05:52.180, 97, 94, 67
2023/06/22 04:05:53.316, 92, 92, 64
2023/06/22 04:05:54.436, 99, 92, 61
2023/06/22 04:05:55.572, 95, 91, 62
2023/06/22 04:05:56.691, 91, 91, 63
2023/06/22 04:05:57.828, 90, 93, 65
2023/06/22 04:05:58.947, 88, 90, 62
2023/06/22 04:06:00.083, 89, 90, 57
2023/06/22 04:06:01.204, 89, 91, 62
2023/06/22 04:06:02.339, 90, 89, 63
2023/06/22 04:06:03.459, 86, 93, 61
2023/06/22 04:06:04.595, 88, 93, 66
2023/06/22 04:06:05.715, 89, 93, 62
2023/06/22 04:06:06.851, 86, 94, 60
2023/06/22 04:06:07.971, 87, 92, 61
2023/06/22 04:06:09.106, 88, 91, 64
2023/06/22 04:06:10.227, 87, 91, 61
2023/06/22 04:06:11.363, 85, 91, 64
2023/06/22 04:06:12.483, 84, 93, 60
2023/06/22 04:06:13.618, 84, 88, 67
2023/06/22 04:06:14.739, 85, 92, 62
2023/06/22 04:06:15.874, 83, 91, 61
2023/06/22 04:06:17.010, 82, 91, 63
2023/06/22 04:06:18.130, 87, 91, 64
2023/06/22 04:06:19.266, 86, 89, 61
2023/06/22 04:06:20.386, 87, 90, 63
2023/06/22 04:06:21.522, 85, 92, 62
2023/06/22 04:06:22.642, 86, 91, 62
2023/06/22 04:06:23.778, 85, 91, 60
2023/06/22 04:06:24.897, 87, 89, 62
2023/06/22 04:06:26.033, 87, 91, 58
2023/06/22 04:06:27.154, 84, 91, 64
2023/06/22 04:06:28.290, 85, 86, 56
2023/06/22 04:06:29.409, 87, 94, 62
2023/06/22 04:06:30.545, 85, 92, 65
2023/06/22 04:06:31.665, 85, 87, 65
2023/06/22 04:06:32.801, 88, 90, 63
2023/06/22 04:06:33.921, 84, 91, 65
2023/06/22 04:06:35.057, 86, 89, 60
2023/06/22 04:06:36.177, 86, 90, 61
2023/06/22 04:06:37.313, 86, 88, 63
2023/06/22 04:06:38.433, 84, 91, 64
2023/06/22 04:06:39.569, 89, 90, 64
2023/06/22 04:06:40.688, 85, 88, 63
2023/06/22 04:06:41.825, 86, 87, 65
2023/06/22 04:06:42.945, 81, 93, 62
2023/06/22 04:06:44.081, 85, 94, 64
2023/06/22 04:06:45.200, 85, 90, 60
2023/06/22 04:06:46.336, 84, 90, 67
2023/06/22 04:06:47.456, 85, 88, 58
2023/06/22 04:06:48.592, 81, 92, 59
2023/06/22 04:06:49.712, 86, 86, 63
2023/06/22 04:06:50.848, 86, 90, 61
2023/06/22 04:06:51.984, 85, 89, 61
2023/06/22 04:06:53.104, 87, 88, 66
2023/06/22 04:06:54.240, 87, 86, 63
2023/06/22 04:06:55.360, 86, 90, 60
2023/06/22 04:06:56.496, 82, 89, 62
2023/06/22 04:06:57.616, 81, 88, 58
2023/06/22 04:06:58.752, 83, 89, 62
2023/06/22 04:06:59.871, 86, 86, 64
2023/06/22 04:07:01.008, 83, 87, 62
2023/06/22 04:07:02.128, 84, 91, 64
2023/06/22 04:07:03.263, 82, 91, 62
2023/06/22 04:07:04.383, 86, 90, 64
2023/06/22 04:07:05.519, 89, 89, 60
2023/06/22 04:07:06.639, 85, 86, 64
2023/06/22 04:07:07.776, 85, 86, 67
2023/06/22 04:07:08.895, 89, 87, 63
2023/06/22 04:07:10.031, 83, 88, 60
2023/06/22 04:07:11.151, 85, 89, 63
2023/06/22 04:07:12.287, 86, 88, 64
2023/06/22 04:07:13.407, 86, 84, 61
2023/06/22 04:07:14.543, 86, 88, 66
2023/06/22 04:07:15.663, 88, 88, 63
2023/06/22 04:07:16.798, 83, 89, 63
2023/06/22 04:07:17.935, 83, 87, 63
2023/06/22 04:07:19.055, 83, 84, 59
2023/06/22 04:07:20.191, 86, 89, 60
2023/06/22 04:07:21.310, 84, 90, 63
2023/06/22 04:07:22.446, 89, 90, 59
2023/06/22 04:07:23.566, 88, 83, 63
2023/06/22 04:07:24.702, 87, 90, 61
2023/06/22 04:07:25.822, 87, 89, 64
2023/06/22 04:07:26.958, 86, 90, 64
2023/06/22 04:07:28.078, 85, 90, 64
2023/06/22 04:07:29.214, 87, 86, 58
2023/06/22 04:07:30.334, 85, 88, 60
2023/06/22 04:07:31.470, 86, 90, 60
2023/06/22 04:07:32.590, 89, 89, 65
2023/06/22 04:07:33.725, 82, 89, 64
2023/06/22 04:07:34.846, 81, 88, 59
2023/06/22 04:07:35.981, 87, 87, 65
2023/06/22 04:07:37.101, 86, 90, 61
2023/06/22 04:07:38.237, 86, 86, 61
2023/06/22 04:07:39.357, 87, 85, 58
2023/06/22 04:07:40.493, 83, 89, 62
2023/06/22 04:07:41.613, 86, 88, 60
2023/06/22 04:07:42.749, 86, 90, 67
2023/06/22 04:07:43.869, 82, 87, 60
2023/06/22 04:07:45.005, 80, 89, 63
2023/06/22 04:07:46.125, 84, 91, 58
2023/06/22 04:07:47.261, 87, 90, 60
2023/06/22 04:07:48.380, 86, 89, 63
2023/06/22 04:07:49.516, 82, 86, 56
2023/06/22 04:07:50.637, 84, 87, 62
2023/06/22 04:07:51.773, 91, 87, 58
2023/06/22 04:07:52.909, 84, 89, 65
2023/06/22 04:07:54.028, 82, 88, 62
2023/06/22 04:07:55.164, 85, 88, 63
2023/06/22 04:07:56.284, 81, 86, 64
2023/06/22 04:07:57.420, 82, 90, 61
2023/06/22 04:07:58.540, 84, 87, 61
2023/06/22 04:07:59.676, 87, 86, 62
2023/06/22 04:08:00.796, 82, 87, 59
2023/06/22 04:08:01.931, 83, 86, 58
2023/06/22 04:08:03.051, 78, 88, 65
2023/06/22 04:08:04.188, 84, 86, 62
2023/06/22 04:08:05.308, 84, 87, 64
2023/06/22 04:08:06.443, 80, 89, 62
2023/06/22 04:08:07.563, 82, 88, 62
2023/06/22 04:08:08.700, 91, 87, 67
2023/06/22 04:08:09.819, 84, 86, 62
2023/06/22 04:08:10.955, 83, 90, 58
2023/06/22 04:08:12.075, 85, 101, 63
2023/06/22 04:08:13.211, 79, 87, 62
2023/06/22 04:08:14.331, 85, 87, 62
2023/06/22 04:08:15.467, 85, 85, 60
2023/06/22 04:08:16.602, 85, 88, 59
2023/06/22 04:08:17.723, 84, 86, 62
2023/06/22 04:08:18.858, 86, 89, 62
2023/06/22 04:08:19.979, 84, 87, 63
2023/06/22 04:08:21.115, 83, 88, 61
2023/06/22 04:08:22.235, 81, 86, 62
2023/06/22 04:08:23.371, 84, 87, 60
2023/06/22 04:08:24.491, 83, 85, 60
2023/06/22 04:08:25.626, 83, 89, 65
2023/06/22 04:08:26.746, 84, 87, 61
2023/06/22 04:08:27.882, 83, 89, 56
2023/06/22 04:08:29.003, 83, 88, 58
2023/06/22 04:08:30.138, 81, 86, 63
2023/06/22 04:08:31.258, 83, 88, 60
2023/06/22 04:08:32.394, 86, 92, 58
2023/06/22 04:08:33.514, 85, 89, 61
2023/06/22 04:08:34.650, 85, 89, 61
2023/06/22 04:08:35.770, 82, 86, 68
2023/06/22 04:08:36.905, 85, 86, 63
2023/06/22 04:08:38.025, 84, 85, 63
2023/06/22 04:08:39.161, 85, 91, 59
2023/06/22 04:08:40.281, 84, 86, 63
2023/06/22 04:08:41.417, 87, 88, 61
2023/06/22 04:08:42.537, 84, 88, 59
2023/06/22 04:08:43.673, 84, 88, 62
2023/06/22 04:08:44.792, 84, 90, 59
2023/06/22 04:08:45.929, 84, 87, 61
2023/06/22 04:08:47.049, 81, 87, 63
2023/06/22 04:08:48.185, 82, 86, 61
2023/06/22 04:08:49.305, 88, 87, 60
2023/06/22 04:08:50.441, 81, 87, 60
2023/06/22 04:08:51.576, 82, 85, 61
2023/06/22 04:08:52.697, 84, 88, 60
2023/06/22 04:08:53.832, 84, 89, 59
2023/06/22 04:08:54.953, 84, 89, 59
2023/06/22 04:08:56.089, 87, 87, 58
2023/06/22 04:08:57.208, 87, 84, 62
2023/06/22 04:08:58.344, 87, 87, 61
2023/06/22 04:08:59.464, 84, 84, 61
2023/06/22 04:09:00.600, 84, 86, 61
2023/06/22 04:09:01.720, 82, 84, 54
2023/06/22 04:09:02.856, 82, 89, 60
2023/06/22 04:09:03.976, 84, 88, 60
2023/06/22 04:09:05.112, 85, 82, 62
2023/06/22 04:09:06.232, 84, 86, 58
2023/06/22 04:09:07.368, 85, 85, 60
2023/06/22 04:09:08.487, 81, 89, 61
2023/06/22 04:09:09.624, 83, 85, 63
2023/06/22 04:09:10.744, 81, 85, 59
2023/06/22 04:09:11.880, 83, 85, 58
2023/06/22 04:09:12.000, 82, 90, 65
2023/06/22 04:09:14.135, 78, 87, 64
2023/06/22 04:09:15.255, 84, 84, 60
2023/06/22 04:09:16.391, 86, 86, 56
2023/06/22 04:09:17.527, 83, 86, 59
2023/06/22 04:09:18.647, 83, 84, 63
2023/06/22 04:09:19.783, 80, 85, 59
2023/06/22 04:09:20.903, 81, 87, 62
2023/06/22 04:09:22.039, 80, 83, 59
2023/06/22 04:09:23.159, 83, 92, 59
2023/06/22 04:09:24.295, 85, 82, 67
2023/06/22 04:09:25.415, 86, 85, 59
2023/06/22 04:09:26.551, 81, 86, 59
2023/06/22 04:09:27.670, 81, 86, 59
2023/06/22 04:09:28.807, 84, 84, 61
2023/06/22 04:09:29.926, 82, 87, 63
2023/06/22 04:09:31.062, 83, 84, 66
2023/06/22 04:09:32.182, 83, 86, 62
2023/06/22 04:09:33.317, 86, 84, 60
2023/06/22 04:09:34.438, 82, 87, 66
2023/06/22 04:09:35.574, 82, 84, 61
2023/06/22 04:09:36.694, 87, 86, 58
2023/06/22 04:09:37.829, 86, 87, 61
2023/06/22 04:09:38.949, 85, 83, 66
2023/06/22 04:09:40.086, 84, 86, 64
2023/06/22 04:09:41.206, 82, 87, 58
2023/06/22 04:09:42.341, 79, 87, 61
2023/06/22 04:09:43.461, 82, 86, 60
2023/06/22 04:09:44.597, 80, 83, 61
2023/06/22 04:09:45.717, 85, 84, 58
2023/06/22 04:09:46.853, 85, 87, 57
2023/06/22 04:09:47.973, 80, 92, 63
2023/06/22 04:09:49.109, 83, 85, 60
2023/06/22 04:09:50.229, 83, 88, 64
2023/06/22 04:09:51.365, 88, 82, 57
2023/06/22 04:09:52.501, 84, 97, 56
2023/06/22 04:09:53.620, 86, 89, 62
2023/06/22 04:09:54.757, 88, 86, 59
2023/06/22 04:09:55.877, 81, 87, 60
2023/06/22 04:09:57.013, 83, 82, 63
2023/06/22 04:09:58.133, 84, 84, 59
2023/06/22 04:09:59.268, 85, 85, 55
2023/06/22 04:10:00.388, 80, 89, 60
2023/06/22 04:10:01.524, 82, 89, 57
2023/06/22 04:10:02.644, 85, 86, 60
2023/06/22 04:10:03.781, 85, 86, 63
2023/06/22 04:10:04.900, 82, 87, 58
2023/06/22 04:10:06.036, 82, 89, 62
2023/06/22 04:10:07.156, 82, 87, 62
2023/06/22 04:10:08.292, 81, 84, 62
2023/06/22 04:10:09.411, 81, 84, 64
2023/06/22 04:10:10.547, 84, 89, 65
2023/06/22 04:10:11.667, 84, 83, 61
2023/06/22 04:10:12.804, 82, 85, 62
2023/06/22 04:10:13.923, 84, 88, 63
2023/06/22 04:10:15.060, 86, 90, 70
2023/06/22 04:10:16.180, 86, 84, 66
2023/06/22 04:10:17.315, 81, 90, 62
2023/06/22 04:10:18.451, 87, 95, 59
2023/06/22 04:10:19.570, 84, 94, 63
2023/06/22 04:10:20.707, 88, 96, 66
2023/06/22 04:10:21.827, 84, 98, 63
2023/06/22 04:10:22.963, 87, 93, 70
2023/06/22 04:10:24.083, 87, 95, 66
2023/06/22 04:10:25.219, 89, 95, 61
2023/06/22 04:10:26.339, 89, 95, 66
2023/06/22 04:10:27.474, 89, 95, 63
2023/06/22 04:10:28.595, 90, 96, 63
2023/06/22 04:10:29.730, 87, 96, 62
2023/06/22 04:10:30.850, 89, 99, 62
2023/06/22 04:10:31.986, 87, 98, 71
2023/06/22 04:10:33.106, 95, 100, 62
2023/06/22 04:10:34.242, 90, 100, 68
2023/06/22 04:10:35.362, 90, 99, 61
2023/06/22 04:10:36.498, 90, 99, 65
2023/06/22 04:10:37.618, 93, 99, 65
2023/06/22 04:10:38.753, 91, 100, 65
2023/06/22 04:10:39.874, 93, 101, 68
2023/06/22 04:10:41.009, 95, 102, 66
2023/06/22 04:10:42.146, 97, 113, 63
2023/06/22 04:10:43.266, 93, 109, 68
2023/06/22 04:10:44.401, 101, 106, 68
2023/06/22 04:10:45.521, 96, 104, 73
2023/06/22 04:10:46.658, 94, 103, 69
2023/06/22 04:10:47.793, 97, 105, 67
2023/06/22 04:10:48.913, 97, 110, 74
2023/06/22 04:10:50.049, 94, 107, 68
2023/06/22 04:10:51.169, 98, 133, 70
2023/06/22 04:10:52.305, 94, 108, 72
2023/06/22 04:10:53.425, 97, 109, 72
2023/06/22 04:10:54.561, 94, 112, 75
2023/06/22 04:10:55.697, 96, 110, 71
2023/06/22 04:10:56.817, 94, 108, 74
2023/06/22 04:10:57.953, 95, 112, 72
2023/06/22 04:10:59.072, 95, 111, 73
2023/06/22 04:11:00.208, 100, 110, 74
2023/06/22 04:11:01.344, 100, 112, 71
2023/06/22 04:11:02.464, 102, 108, 72
2023/06/22 04:11:03.601, 95, 115, 75
2023/06/22 04:11:04.720, 97, 114, 71
2023/06/22 04:11:05.856, 99, 116, 71
2023/06/22 04:11:06.976, 100, 114, 66
2023/06/22 04:11:08.112, 99, 113, 72
2023/06/22 04:11:09.248, 100, 120, 76
2023/06/22 04:11:10.368, 103, 106, 75
2023/06/22 04:11:11.504, 105, 116, 72
2023/06/22 04:11:12.640, 101, 113, 71
2023/06/22 04:11:13.759, 115, 116, 74
2023/06/22 04:11:14.895, 96, 116, 77
2023/06/22 04:11:16.016, 105, 116, 76
2023/06/22 04:11:17.152, 103, 114, 74
2023/06/22 04:11:18.288, 96, 116, 74
2023/06/22 04:11:19.408, 104, 117, 78
2023/06/22 04:11:20.543, 101, 117, 80
2023/06/22 04:11:21.663, 99, 117, 74
2023/06/22 04:11:22.799, 101, 117, 73
2023/06/22 04:11:23.935, 104, 116, 76
2023/06/22 04:11:25.055, 102, 119, 77
2023/06/22 04:11:26.191, 100, 115, 78
2023/06/22 04:11:27.327, 103, 120, 77
2023/06/22 04:11:28.447, 104, 115, 76
2023/06/22 04:11:29.583, 102, 114, 74
2023/06/22 04:11:30.703, 103, 125, 77
2023/06/22 04:11:31.838, 115, 116, 77
2023/06/22 04:11:32.975, 104, 116, 78
2023/06/22 04:11:34.094, 101, 129, 73
2023/06/22 04:11:35.230, 101, 130, 72
2023/06/22 04:11:36.350, 105, 116, 75
2023/06/22 04:11:37.486, 104, 117, 79
2023/06/22 04:11:38.622, 106, 117, 77
2023/06/22 04:11:39.742, 105, 120, 75
2023/06/22 04:11:40.878, 103, 126, 78
2023/06/22 04:11:41.998, 103, 120, 78
2023/06/22 04:11:43.133, 110, 119, 75
2023/06/22 04:11:44.270, 105, 121, 81
2023/06/22 04:11:45.390, 108, 117, 80
2023/06/22 04:11:46.526, 105, 123, 76
2023/06/22 04:11:47.662, 104, 121, 73
2023/06/22 04:11:48.781, 104, 121, 82
2023/06/22 04:11:49.918, 104, 122, 74
2023/06/22 04:11:51.037, 108, 119, 77
2023/06/22 04:11:52.174, 104, 133, 77
2023/06/22 04:11:53.308, 104, 124, 75
2023/06/22 04:11:54.429, 105, 117, 77